This is the latest recevied weather packets stored in our database for station/object KD4MBW. If no packets are shown the sender has not sent any weather packets the latest 10 day(s).
| Time | Temp. | Humidity | Pressure | Rain* | Wind** | Luminosity | Snow |
|---|---|---|---|---|---|---|---|
| 1787856041 | 24.44° C | 95% | 1015.4 hPa | 0 mm | - | 60 W/m² | - |
| 1787855740 | 25° C | 93% | 1015.7 hPa | 0 mm | - | 84 W/m² | - |
| 1787855436 | 26.11° C | 92% | 1015.7 hPa | 0 mm | - | 108 W/m² | - |
| 1787855131 | 26.11° C | 88% | 1015.8 hPa | 0 mm | - | 128 W/m² | - |
| 1787854827 | 27.22° C | 89% | 1015.9 hPa | 0 mm | - | 118 W/m² | - |
| 1787854526 | 28.33° C | 87% | 1015.7 hPa | 0 mm | - | 143 W/m² | - |
| 1787854221 | 30° C | 82% | 1015.6 hPa | 0 mm | - | 176 W/m² | - |
| 1787853915 | 30° C | 83% | 1015.6 hPa | 0 mm | - | 192 W/m² | - |
| 1787853615 | 30.56° C | 82% | 1015.5 hPa | 0 mm | - | 211 W/m² | - |
| 1787853314 | 30° C | 83% | 1015.7 hPa | 0 mm | - | 227 W/m² | - |
| 1787853009 | 30.56° C | 83% | 1015.5 hPa | 0 mm | - | 239 W/m² | - |
| 1787852697 | 30.56° C | 81% | 1015.5 hPa | 0 mm | - | 240 W/m² | - |
| 1787852397 | 30.56° C | 82% | 1015.6 hPa | 0 mm | - | 258 W/m² | - |
| 1787852096 | 30.56° C | 82% | 1015.9 hPa | 0 mm | - | 274 W/m² | - |
| 1787851791 | 30.56° C | 83% | 1015.8 hPa | 0 mm | - | 297 W/m² | - |
| 1787851486 | 30.56° C | 83% | 1015.7 hPa | 0 mm | - | 373 W/m² | - |
| 1787851180 | 30.56° C | 82% | 1015.9 hPa | 0 mm | - | 646 W/m² | - |
| 1787850876 | 30° C | 83% | 1015.9 hPa | 0 mm | - | 669 W/m² | - |
| 1787850571 | 30° C | 83% | 1015.6 hPa | 0 mm | - | 659 W/m² | - |
| 1787850266 | 30° C | 83% | 1015.7 hPa | 0 mm | - | 724 W/m² | - |
| 1787849966 | 30° C | 85% | 1015.7 hPa | 0 mm | - | 662 W/m² | - |
| 1787849661 | 29.44° C | 86% | 1015.8 hPa | 0 mm | - | 586 W/m² | - |
| 1787849355 | 29.44° C | 85% | 1015.7 hPa | 0 mm | - | 550 W/m² | - |
| 1787849054 | 29.44° C | 85% | 1016.2 hPa | 0 mm | - | 466 W/m² | - |
| 1787848749 | 30° C | 85% | 1015.8 hPa | 0 mm | - | 470 W/m² | - |
* Rain latest hour (hover to see other rain measurements)
** Current wind speed in m/s (hover to see current wind gust speed)